,,,PA_Meas_PMT16A,,PR_Meas_QMR101_102,,RH_Meas_QMH101,,SR_Meas_QMS101,,TA_Meas_QMH101,,GenWind,,GenWind,
date,time,status,PA,status,PR,status,RH,status,SR,status,TA,status,DirAvg,status,SpdAvg,
2011-03-21, 00:00:04,VALID,1000.03,VALID,0,VALID,92.1963,VALID,0,VALID,23.2329,VALID,158,VALID,0.404297,
2011-03-21, 00:01:04,VALID,1000.06,VALID,0,VALID,92.204,VALID,0,VALID,23.2524,VALID,158,VALID,0.227344,
2011-03-21, 00:02:04,VALID,1000.12,VALID,0,VALID,92.1963,VALID,0,VALID,23.2719,VALID,237,VALID,1.08242,
2011-03-21, 00:03:04,VALID,1000.12,VALID,0,VALID,92.1887,VALID,0,VALID,23.2897,VALID,242,VALID,0.837891,
2011-03-21, 00:04:04,VALID,1000.1,VALID,0,VALID,92.1353,VALID,0,VALID,23.311,VALID,220,VALID,0.426172,
2011-03-21, 00:05:04,VALID,1000.07,VALID,0,VALID,92.1124,VALID,0,VALID,23.311,VALID,172,VALID,0.984375,
2011-03-21, 00:06:04,VALID,1000.08,VALID,0,VALID,92.0285,VALID,0,VALID,23.3092,VALID,169,VALID,0.817578,
2011-03-21, 00:07:04,VALID,1000.05,VALID,0,VALID,91.998,VALID,0,VALID,23.3305,VALID,166,VALID,0.871484,
2011-03-21, 00:08:04,VALID,1000.06,VALID,0,VALID,91.9369,VALID,0,VALID,23.3695,VALID,143,VALID,1.17852,
2011-03-21, 00:09:04,VALID,1000.1,VALID,0,VALID,91.8759,VALID,0,VALID,23.389,VALID,262,VALID,1.41055,
2011-03-21, 00:10:04,VALID,1000.07,VALID,0,VALID,91.8606,VALID,0,VALID,23.4085,VALID,278,VALID,0.543359,
2011-03-21, 00:11:04,VALID,1000.09,VALID,0,VALID,91.8072,VALID,0,VALID,23.4085,VALID,278,VALID,0.0730469,
2011-03-21, 00:12:04,VALID,1000.08,VALID,0,VALID,91.7767,VALID,0,VALID,23.4085,VALID,278,VALID,0,
2011-03-21, 00:13:04,VALID,1000.03,VALID,0,VALID,91.7233,VALID,0,VALID,23.389,VALID,278,VALID,0,
2011-03-21, 00:14:04,VALID,1000.05,VALID,0,VALID,91.6928,VALID,0,VALID,23.389,VALID,278,VALID,0,
2011-03-21, 00:15:04,VALID,1000.02,VALID,0,VALID,91.6699,VALID,0,VALID,23.389,VALID,278,VALID,0,
2011-03-21, 00:16:04,VALID,999.978,VALID,0,VALID,91.6623,VALID,0,VALID,23.389,VALID,324,VALID,0.199609,
2011-03-21, 00:17:04,VALID,999.969,VALID,0,VALID,91.647,VALID,0,VALID,23.389,VALID,74,VALID,0.436719,
2011-03-21, 00:18:04,VALID,1000.01,VALID,0,VALID,91.6317,VALID,0,VALID,23.4085,VALID,74,VALID,0.0785156,
2011-03-21, 00:19:04,VALID,1000.08,VALID,0,VALID,91.6012,VALID,0,VALID,23.4475,VALID,173,VALID,0,
2011-03-21, 00:20:04,VALID,1000.1,VALID,0,VALID,91.6241,VALID,0,VALID,23.4458,VALID,312,VALID,0.953906,
2011-03-21, 00:21:04,VALID,1000.08,VALID,0,VALID,91.6088,VALID,0,VALID,23.4671,VALID,297,VALID,1.06367,
2011-03-21, 00:22:04,VALID,1000.07,VALID,0,VALID,91.5707,VALID,0,VALID,23.4458,VALID,275,VALID,1.34063,
2011-03-21, 00:23:04,VALID,1000.11,VALID,0,VALID,91.4105,VALID,0,VALID,23.5061,VALID,276,VALID,1.09063,
2011-03-21, 00:24:04,VALID,1000.07,VALID,0,VALID,91.1206,VALID,0,VALID,23.5628,VALID,286,VALID,1.21445,
2011-03-21, 00:25:04,VALID,1000.07,VALID,0,VALID,90.7696,VALID,0,VALID,23.6214,VALID,275,VALID,1.33828,
2011-03-21, 00:26:04,VALID,1000.06,VALID,0,VALID,90.4339,VALID,0,VALID,23.6622,VALID,240,VALID,0.792188,
2011-03-21, 00:27:04,VALID,1000.08,VALID,0,VALID,90.1745,VALID,0,VALID,23.6817,VALID,285,VALID,1.31992,
2011-03-21, 00:28:04,VALID,1000.09,VALID,0,VALID,90.0143,VALID,0,VALID,23.7012,VALID,303,VALID,0.692969,
2011-03-21, 00:29:04,VALID,1000.08,VALID,0,VALID,90.0066,VALID,0,VALID,23.7012,VALID,152,VALID,0.485547,
2011-03-21, 00:30:04,VALID,1000.09,VALID,0,VALID,90.0677,VALID,0,VALID,23.6817,VALID,262,VALID,1.69844,
2011-03-21, 00:31:04,VALID,1000.08,VALID,0,VALID,89.9532,VALID,0,VALID,23.6427,VALID,205,VALID,1.46914,
2011-03-21, 00:32:04,VALID,1000.08,VALID,0,VALID,89.7777,VALID,0,VALID,23.6427,VALID,238,VALID,1.28281,
2011-03-21, 00:33:04,VALID,1000.1,VALID,0,VALID,89.7396,VALID,0,VALID,23.6427,VALID,264,VALID,0.666797,
2011-03-21, 00:34:04,VALID,1000.11,VALID,0,VALID,89.8617,VALID,0,VALID,23.6232,VALID,239,VALID,0.180859,
2011-03-21, 00:35:04,VALID,1000.12,VALID,0,VALID,90.0295,VALID,0,VALID,23.6036,VALID,272,VALID,0.458984,
2011-03-21, 00:36:04,VALID,1000.12,VALID,0,VALID,90.1287,VALID,0,VALID,23.5433,VALID,265,VALID,0.467578,
2011-03-21, 00:37:04,VALID,1000.13,VALID,0,VALID,90.1363,VALID,0,VALID,23.5256,VALID,283,VALID,1.1168,
2011-03-21, 00:38:04,VALID,1000.14,VALID,0,VALID,90.0829,VALID,0,VALID,23.5043,VALID,338,VALID,1.78125,
2011-03-21, 00:39:04,VALID,1000.12,VALID,0,VALID,90.0143,VALID,0,VALID,23.5061,VALID,319,VALID,1.46758,
2011-03-21, 00:40:04,VALID,1000.13,VALID,0,VALID,90.0753,VALID,0,VALID,23.5061,VALID,241,VALID,1.01445,
2011-03-21, 00:41:04,VALID,1000.07,VALID,0,VALID,90.0906,VALID,0,VALID,23.4866,VALID,190,VALID,0.8125,
2011-03-21, 00:42:04,VALID,1000.08,VALID,0,VALID,90.0448,VALID,0,VALID,23.4671,VALID,242,VALID,2.34336,
2011-03-21, 00:43:04,VALID,1000.05,VALID,0,VALID,89.9227,VALID,0,VALID,23.4866,VALID,217,VALID,0.772266,
2011-03-21, 00:44:04,VALID,1000.04,VALID,0,VALID,89.9609,VALID,0,VALID,23.4671,VALID,242,VALID,0.715234,
2011-03-21, 00:45:04,VALID,1000.02,VALID,0,VALID,90.0906,VALID,0,VALID,23.4866,VALID,224,VALID,0.646094,
2011-03-21, 00:46:04,VALID,1000.04,VALID,0,VALID,90.1745,VALID,0,VALID,23.4475,VALID,278,VALID,1.6875,
2011-03-21, 00:47:04,VALID,1000.02,VALID,0.5,VALID,90.2813,VALID,0,VALID,23.4475,VALID,221,VALID,1.2,
2011-03-21, 00:48:04,VALID,999.998,VALID,0,VALID,90.3805,VALID,0,VALID,23.4475,VALID,228,VALID,1.11289,
2011-03-21, 00:49:04,VALID,999.969,VALID,0,VALID,90.472,VALID,0,VALID,23.428,VALID,243,VALID,2.6207,
2011-03-21, 00:50:04,VALID,999.959,VALID,0,VALID,90.5178,VALID,0,VALID,23.4085,VALID,243,VALID,1.31953,
2011-03-21, 00:51:04,VALID,999.97,VALID,0,VALID,90.5026,VALID,0,VALID,23.4085,VALID,248,VALID,1.49492,
2011-03-21, 00:52:04,VALID,999.968,VALID,0,VALID,90.4491,VALID,0,VALID,23.4085,VALID,199,VALID,0.970703,
2011-03-21, 00:53:04,VALID,999.943,VALID,0,VALID,90.4949,VALID,0,VALID,23.4085,VALID,303,VALID,0.874609,
2011-03-21, 00:54:04,VALID,999.918,VALID,0,VALID,90.5941,VALID,0,VALID,23.3695,VALID,210,VALID,2.17617,
2011-03-21, 00:55:04,VALID,999.927,VALID,0,VALID,90.6246,VALID,0,VALID,23.389,VALID,224,VALID,1.0082,
2011-03-21, 00:56:04,VALID,999.892,VALID,0,VALID,90.7162,VALID,0,VALID,23.3695,VALID,223,VALID,0.846484,
2011-03-21, 00:57:04,VALID,999.875,VALID,0,VALID,90.8001,VALID,0,VALID,23.35,VALID,210,VALID,0.529688,
2011-03-21, 00:58:04,VALID,999.856,VALID,0,VALID,90.9069,VALID,0,VALID,23.35,VALID,281,VALID,0.05625,
2011-03-21, 00:59:04,VALID,999.834,VALID,0,VALID,90.9985,VALID,0,VALID,23.3305,VALID,277,VALID,0,
2011-03-21, 01:00:04,VALID,999.82,VALID,0.5,VALID,91.0977,VALID,0,VALID,23.3287,VALID,204,VALID,0,
2011-03-21, 01:01:04,VALID,999.788,VALID,0,VALID,91.174,VALID,0,VALID,23.3305,VALID,237,VALID,1.29062,
2011-03-21, 01:02:04,VALID,999.778,VALID,0,VALID,91.2274,VALID,0,VALID,23.3305,VALID,245,VALID,0.78125,
2011-03-21, 01:03:04,VALID,999.746,VALID,0,VALID,91.2884,VALID,0,VALID,23.311,VALID,282,VALID,0.244531,
2011-03-21, 01:04:04,VALID,999.715,VALID,0,VALID,91.3266,VALID,0,VALID,23.311,VALID,292,VALID,0.945703,
2011-03-21, 01:05:04,VALID,999.733,VALID,0,VALID,91.3876,VALID,0,VALID,23.311,VALID,281,VALID,0.760156,
2011-03-21, 01:06:04,VALID,999.682,VALID,0,VALID,91.4486,VALID,0,VALID,23.311,VALID,270,VALID,0.526563,
2011-03-21, 01:07:04,VALID,999.693,VALID,0,VALID,91.4639,VALID,0,VALID,23.2915,VALID,285,VALID,1.12852,
2011-03-21, 01:08:04,VALID,999.64,VALID,0,VALID,91.4639,VALID,0,VALID,23.2915,VALID,338,VALID,0.780469,
2011-03-21, 01:09:04,VALID,999.629,VALID,0,VALID,91.502,VALID,0,VALID,23.2915,VALID,277,VALID,0.353516,
2011-03-21, 01:10:04,VALID,999.639,VALID,0,VALID,91.5173,VALID,0,VALID,23.2915,VALID,268,VALID,0.053125,
2011-03-21, 01:11:04,VALID,999.596,VALID,0,VALID,91.5326,VALID,0,VALID,23.2897,VALID,268,VALID,0,
2011-03-21, 01:12:04,VALID,999.56,VALID,0,VALID,91.5478,VALID,0,VALID,23.2915,VALID,270,VALID,0,
2011-03-21, 01:13:04,VALID,999.565,VALID,0.5,VALID,91.5631,VALID,0,VALID,23.2915,VALID,281,VALID,0,
2011-03-21, 01:14:04,VALID,999.526,VALID,0,VALID,91.6012,VALID,0,VALID,23.2507,VALID,281,VALID,0,
2011-03-21, 01:15:04,VALID,999.535,VALID,0,VALID,91.6394,VALID,0,VALID,23.2524,VALID,9,VALID,0,
2011-03-21, 01:16:04,VALID,999.528,VALID,0,VALID,91.6623,VALID,0,VALID,23.2719,VALID,323,VALID,0.715234,
2011-03-21, 01:17:04,VALID,999.529,VALID,0,VALID,91.6623,VALID,0,VALID,23.2915,VALID,283,VALID,0.867578,
2011-03-21, 01:18:04,VALID,999.5,VALID,0,VALID,91.6851,VALID,0,VALID,23.2702,VALID,259,VALID,0.0289063,
2011-03-21, 01:19:04,VALID,999.51,VALID,0,VALID,91.6775,VALID,0,VALID,23.2915,VALID,259,VALID,0,
2011-03-21, 01:20:04,VALID,999.471,VALID,0,VALID,91.6775,VALID,0,VALID,23.2702,VALID,259,VALID,0,
2011-03-21, 01:21:04,VALID,999.474,VALID,0,VALID,91.7004,VALID,0,VALID,23.2507,VALID,259,VALID,0,
2011-03-21, 01:22:04,VALID,999.442,VALID,0,VALID,91.7385,VALID,0,VALID,23.2719,VALID,259,VALID,0,
2011-03-21, 01:23:04,VALID,999.439,VALID,0,VALID,91.7462,VALID,0,VALID,23.2507,VALID,259,VALID,0,
2011-03-21, 01:24:04,VALID,999.38,VALID,0,VALID,91.7691,VALID,0,VALID,23.2524,VALID,259,VALID,0,
2011-03-21, 01:25:04,VALID,999.431,VALID,0,VALID,91.8072,VALID,0,VALID,23.2719,VALID,259,VALID,0,
2011-03-21, 01:26:04,VALID,999.382,VALID,0,VALID,91.8301,VALID,0,VALID,23.2524,VALID,126,VALID,0,
2011-03-21, 01:27:04,VALID,999.338,VALID,0,VALID,91.853,VALID,0,VALID,23.2719,VALID,116,VALID,0.256641,
2011-03-21, 01:28:04,VALID,999.332,VALID,0,VALID,91.8759,VALID,0,VALID,23.2719,VALID,50,VALID,0.644141,
2011-03-21, 01:29:04,VALID,999.287,VALID,0,VALID,91.9369,VALID,0.112286,VALID,23.2702,VALID,40,VALID,1.02578,
2011-03-21, 01:30:04,VALID,999.259,VALID,0,VALID,91.8988,VALID,0,VALID,23.2719,VALID,51,VALID,2.07109,
2011-03-21, 01:31:04,VALID,999.254,VALID,0.5,VALID,91.792,VALID,0,VALID,23.2507,VALID,342,VALID,1.40977,
2011-03-21, 01:32:04,VALID,999.237,VALID,0,VALID,91.7691,VALID,0,VALID,23.311,VALID,308,VALID,1.17852,
2011-03-21, 01:33:04,VALID,999.265,VALID,0,VALID,91.7309,VALID,0,VALID,23.3092,VALID,308,VALID,0.522266,
2011-03-21, 01:34:04,VALID,999.234,VALID,0,VALID,91.6928,VALID,0,VALID,23.311,VALID,308,VALID,0.277734,
2011-03-21, 01:35:04,VALID,999.206,VALID,0,VALID,91.6775,VALID,0,VALID,23.311,VALID,223,VALID,0.357422,
2011-03-21, 01:36:04,VALID,999.155,VALID,0,VALID,91.6546,VALID,0,VALID,23.311,VALID,223,VALID,0.349219,
2011-03-21, 01:37:04,VALID,999.157,VALID,0,VALID,91.647,VALID,0,VALID,23.2915,VALID,223,VALID,0.173828,
2011-03-21, 01:38:04,VALID,999.193,VALID,0,VALID,91.6317,VALID,0,VALID,23.2719,VALID,223,VALID,0.270312,
2011-03-21, 01:39:04,VALID,999.147,VALID,0,VALID,91.6012,VALID,0,VALID,23.2719,VALID,222,VALID,0.0402344,
2011-03-21, 01:40:04,VALID,999.107,VALID,0,VALID,91.5783,VALID,0,VALID,23.2719,VALID,181,VALID,0.177344,
2011-03-21, 01:41:04,VALID,999.083,VALID,0,VALID,91.5631,VALID,0,VALID,23.2719,VALID,212,VALID,1.15977,
2011-03-21, 01:42:04,VALID,999.081,VALID,0,VALID,91.4715,VALID,0,VALID,23.2702,VALID,271,VALID,0.810938,
2011-03-21, 01:43:04,VALID,999.057,VALID,0,VALID,91.3647,VALID,0,VALID,23.3305,VALID,216,VALID,0.901172,
2011-03-21, 01:44:04,VALID,999.035,VALID,0,VALID,91.2274,VALID,0.112286,VALID,23.35,VALID,215,VALID,0.0945313,
2011-03-21, 01:45:04,VALID,999.005,VALID,0,VALID,91.1053,VALID,0,VALID,23.3695,VALID,205,VALID,0,
2011-03-21, 01:46:04,VALID,998.988,VALID,0,VALID,91.029,VALID,0,VALID,23.3695,VALID,205,VALID,0,
2011-03-21, 01:47:04,VALID,998.991,VALID,0,VALID,90.9451,VALID,0,VALID,23.35,VALID,205,VALID,0,
2011-03-21, 01:48:04,VALID,998.992,VALID,0,VALID,90.9832,VALID,0,VALID,23.3695,VALID,205,VALID,0,
2011-03-21, 01:49:04,VALID,998.971,VALID,0,VALID,91.09,VALID,0,VALID,23.389,VALID,174,VALID,0,
2011-03-21, 01:50:04,VALID,998.952,VALID,0,VALID,91.174,VALID,0,VALID,23.389,VALID,173,VALID,0,
2011-03-21, 01:51:04,VALID,998.962,VALID,0,VALID,91.2579,VALID,0,VALID,23.3677,VALID,173,VALID,0,
2011-03-21, 01:52:04,VALID,998.971,VALID,0,VALID,91.3113,VALID,0,VALID,23.389,VALID,223,VALID,0.535547,
2011-03-21, 01:53:04,VALID,998.935,VALID,0.5,VALID,91.296,VALID,0,VALID,23.3677,VALID,223,VALID,0.128125,
2011-03-21, 01:54:04,VALID,998.901,VALID,0,VALID,91.2884,VALID,0,VALID,23.3677,VALID,147,VALID,0.471484,
2011-03-21, 01:55:04,VALID,998.883,VALID,0,VALID,91.2426,VALID,0,VALID,23.3482,VALID,142,VALID,0,
2011-03-21, 01:56:04,VALID,998.905,VALID,0,VALID,91.2731,VALID,0,VALID,23.3695,VALID,143,VALID,0.297266,
2011-03-21, 01:57:04,VALID,998.889,VALID,0,VALID,91.296,VALID,0,VALID,23.3677,VALID,147,VALID,0.0195313,
2011-03-21, 01:58:04,VALID,998.871,VALID,0,VALID,91.2579,VALID,0,VALID,23.3695,VALID,127,VALID,0.963672,
2011-03-21, 01:59:04,VALID,998.916,VALID,0,VALID,91.2045,VALID,0,VALID,23.35,VALID,132,VALID,0.873047,
2011-03-21, 02:00:04,VALID,998.876,VALID,0,VALID,91.2045,VALID,0,VALID,23.3482,VALID,134,VALID,1.08086,
2011-03-21, 02:01:04,VALID,998.858,VALID,0,VALID,91.2731,VALID,0,VALID,23.3677,VALID,134,VALID,1.1293,
2011-03-21, 02:02:04,VALID,998.828,VALID,0,VALID,91.3723,VALID,0,VALID,23.3695,VALID,125,VALID,1.29922,
2011-03-21, 02:03:04,VALID,998.837,VALID,0,VALID,91.4715,VALID,0,VALID,23.3695,VALID,115,VALID,1.32109,
2011-03-21, 02:04:04,VALID,998.84,VALID,0,VALID,91.5554,VALID,0,VALID,23.35,VALID,115,VALID,0.854297,
2011-03-21, 02:05:04,VALID,998.811,VALID,0,VALID,91.6546,VALID,0,VALID,23.35,VALID,115,VALID,1.12109,
2011-03-21, 02:06:04,VALID,998.831,VALID,0,VALID,91.7004,VALID,0,VALID,23.3305,VALID,97,VALID,2.17773,
2011-03-21, 02:07:04,VALID,998.775,VALID,0,VALID,91.7157,VALID,0,VALID,23.3305,VALID,97,VALID,1.73867,
2011-03-21, 02:08:04,VALID,998.805,VALID,0.5,VALID,91.7309,VALID,0,VALID,23.2897,VALID,98,VALID,0.493359,
2011-03-21, 02:09:04,VALID,998.771,VALID,0,VALID,91.7691,VALID,0,VALID,23.3305,VALID,124,VALID,0.335156,
2011-03-21, 02:10:04,VALID,998.728,VALID,0,VALID,91.8377,VALID,0,VALID,23.311,VALID,150,VALID,0,
2011-03-21, 02:11:04,VALID,998.714,VALID,0,VALID,91.8225,VALID,0,VALID,23.2915,VALID,150,VALID,0,
2011-03-21, 02:12:04,VALID,998.7,VALID,0,VALID,91.8225,VALID,0,VALID,23.2915,VALID,150,VALID,0,
2011-03-21, 02:13:04,VALID,998.667,VALID,0,VALID,91.8683,VALID,0,VALID,23.311,VALID,245,VALID,0,
2011-03-21, 02:14:04,VALID,998.657,VALID,0,VALID,91.8683,VALID,0,VALID,23.311,VALID,249,VALID,0,
2011-03-21, 02:15:04,VALID,998.624,VALID,0,VALID,91.8911,VALID,0,VALID,23.3305,VALID,249,VALID,0,
2011-03-21, 02:16:04,VALID,998.607,VALID,0,VALID,91.914,VALID,0,VALID,23.3305,VALID,249,VALID,0,
2011-03-21, 02:17:04,VALID,998.558,VALID,0,VALID,91.8988,VALID,0,VALID,23.311,VALID,249,VALID,0,
2011-03-21, 02:18:04,VALID,998.536,VALID,0,VALID,91.8683,VALID,0,VALID,23.3092,VALID,249,VALID,0,
2011-03-21, 02:19:04,VALID,998.525,VALID,0,VALID,91.8225,VALID,0,VALID,23.3305,VALID,249,VALID,0,
2011-03-21, 02:20:04,VALID,998.496,VALID,0,VALID,91.7691,VALID,0,VALID,23.3305,VALID,169,VALID,0,
2011-03-21, 02:21:04,VALID,998.492,VALID,0,VALID,91.7233,VALID,0,VALID,23.3305,VALID,144,VALID,0,
2011-03-21, 02:22:04,VALID,998.49,VALID,0,VALID,91.6775,VALID,0,VALID,23.3305,VALID,155,VALID,0,
2011-03-21, 02:23:04,VALID,998.503,VALID,0,VALID,91.6546,VALID,0,VALID,23.35,VALID,158,VALID,0,
2011-03-21, 02:24:04,VALID,998.488,VALID,0,VALID,91.6088,VALID,0,VALID,23.35,VALID,158,VALID,0,
2011-03-21, 02:25:04,VALID,998.451,VALID,0,VALID,91.5554,VALID,0,VALID,23.3305,VALID,158,VALID,0,
2011-03-21, 02:26:04,VALID,998.451,VALID,0,VALID,91.5402,VALID,0,VALID,23.3305,VALID,158,VALID,0,
2011-03-21, 02:27:04,VALID,998.428,VALID,0,VALID,91.5173,VALID,0,VALID,23.311,VALID,158,VALID,0,
2011-03-21, 02:28:04,VALID,998.397,VALID,0,VALID,91.5173,VALID,0,VALID,23.311,VALID,158,VALID,0,
2011-03-21, 02:29:04,VALID,998.408,VALID,0,VALID,91.5554,VALID,0,VALID,23.311,VALID,170,VALID,0,
2011-03-21, 02:30:04,VALID,998.405,VALID,0,VALID,91.6012,VALID,0,VALID,23.3323,VALID,208,VALID,0,
2011-03-21, 02:31:04,VALID,998.391,VALID,0,VALID,91.6088,VALID,0,VALID,23.3305,VALID,208,VALID,0,
2011-03-21, 02:32:04,VALID,998.429,VALID,0,VALID,91.5707,VALID,0,VALID,23.3305,VALID,208,VALID,0,
2011-03-21, 02:33:04,VALID,998.396,VALID,0,VALID,91.5554,VALID,0,VALID,23.3305,VALID,208,VALID,0,
2011-03-21, 02:34:04,VALID,998.368,VALID,0,VALID,91.5249,VALID,0,VALID,23.35,VALID,208,VALID,0,
2011-03-21, 02:35:04,VALID,998.393,VALID,0,VALID,91.5097,VALID,0,VALID,23.3305,VALID,169,VALID,0,
2011-03-21, 02:36:04,VALID,998.372,VALID,0,VALID,91.4868,VALID,0,VALID,23.35,VALID,157,VALID,0,
2011-03-21, 02:37:04,VALID,998.366,VALID,0,VALID,91.4944,VALID,0,VALID,23.3305,VALID,157,VALID,0,
2011-03-21, 02:38:04,VALID,998.372,VALID,0,VALID,91.5249,VALID,0,VALID,23.3305,VALID,157,VALID,0,
2011-03-21, 02:39:04,VALID,998.369,VALID,0,VALID,91.5783,VALID,0,VALID,23.3305,VALID,148,VALID,0,
2011-03-21, 02:40:04,VALID,998.374,VALID,0,VALID,91.6088,VALID,0,VALID,23.3305,VALID,130,VALID,0,
2011-03-21, 02:41:04,VALID,998.37,VALID,0,VALID,91.6546,VALID,0,VALID,23.311,VALID,127,VALID,0,
2011-03-21, 02:42:04,VALID,998.389,VALID,0,VALID,91.6546,VALID,0,VALID,23.311,VALID,117,VALID,0,
2011-03-21, 02:43:04,VALID,998.399,VALID,0,VALID,91.708,VALID,0,VALID,23.311,VALID,117,VALID,0,
2011-03-21, 02:44:04,VALID,998.373,VALID,0.5,VALID,91.7233,VALID,0,VALID,23.2915,VALID,117,VALID,0,
2011-03-21, 02:45:04,VALID,998.401,VALID,0,VALID,91.7843,VALID,0,VALID,23.311,VALID,119,VALID,0,
2011-03-21, 02:46:04,VALID,998.384,VALID,0,VALID,91.8301,VALID,0,VALID,23.311,VALID,119,VALID,0,
2011-03-21, 02:47:04,VALID,998.394,VALID,0,VALID,91.8988,VALID,0,VALID,23.311,VALID,129,VALID,0,
2011-03-21, 02:48:04,VALID,998.402,VALID,0,VALID,91.9064,VALID,0,VALID,23.311,VALID,140,VALID,0,
2011-03-21, 02:49:04,VALID,998.39,VALID,0,VALID,91.8683,VALID,0,VALID,23.311,VALID,136,VALID,0,
2011-03-21, 02:50:04,VALID,998.403,VALID,0,VALID,91.8072,VALID,0,VALID,23.3305,VALID,121,VALID,0,
2011-03-21, 02:51:04,VALID,998.383,VALID,0,VALID,91.7996,VALID,0,VALID,23.35,VALID,122,VALID,1.16367,
2011-03-21, 02:52:04,VALID,998.393,VALID,0,VALID,91.8377,VALID,0,VALID,23.3305,VALID,122,VALID,1.25664,
2011-03-21, 02:53:04,VALID,998.401,VALID,0,VALID,91.8301,VALID,0,VALID,23.35,VALID,125,VALID,0.947266,
2011-03-21, 02:54:04,VALID,998.386,VALID,0,VALID,91.853,VALID,0,VALID,23.3305,VALID,120,VALID,1.36406,
2011-03-21, 02:55:04,VALID,998.394,VALID,0,VALID,91.8606,VALID,0,VALID,23.3305,VALID,124,VALID,1.08203,
2011-03-21, 02:56:04,VALID,998.393,VALID,0,VALID,91.8988,VALID,0,VALID,23.3092,VALID,127,VALID,1.13008,
2011-03-21, 02:57:04,VALID,998.393,VALID,0,VALID,91.9293,VALID,0,VALID,23.35,VALID,122,VALID,1.08516,
2011-03-21, 02:58:04,VALID,998.343,VALID,0,VALID,91.9217,VALID,0,VALID,23.3305,VALID,122,VALID,0.835938,
2011-03-21, 02:59:04,VALID,998.344,VALID,0,VALID,91.8835,VALID,0,VALID,23.3305,VALID,122,VALID,0.710547,
2011-03-21, 03:00:04,VALID,998.338,VALID,0,VALID,91.8835,VALID,0,VALID,23.35,VALID,121,VALID,0.689453,
2011-03-21, 03:01:04,VALID,998.336,VALID,0,VALID,91.8683,VALID,0,VALID,23.35,VALID,107,VALID,0.589453,
2011-03-21, 03:02:04,VALID,998.311,VALID,0,VALID,91.8683,VALID,0,VALID,23.35,VALID,107,VALID,0.265234,
2011-03-21, 03:03:04,VALID,998.301,VALID,0,VALID,91.8225,VALID,0,VALID,23.35,VALID,107,VALID,0.194531,
2011-03-21, 03:04:04,VALID,998.32,VALID,0,VALID,91.8606,VALID,0,VALID,23.35,VALID,107,VALID,0.148047,
2011-03-21, 03:05:04,VALID,998.293,VALID,0,VALID,91.853,VALID,0,VALID,23.35,VALID,107,VALID,0.0195313,
2011-03-21, 03:06:04,VALID,998.334,VALID,0,VALID,91.9064,VALID,0,VALID,23.35,VALID,107,VALID,0,
2011-03-21, 03:07:04,VALID,998.308,VALID,0,VALID,91.9293,VALID,0,VALID,23.3305,VALID,107,VALID,0,
2011-03-21, 03:08:04,VALID,998.335,VALID,0,VALID,91.9598,VALID,0,VALID,23.311,VALID,107,VALID,0,
2011-03-21, 03:09:04,VALID,998.329,VALID,0,VALID,91.9827,VALID,0,VALID,23.3127,VALID,107,VALID,0,
2011-03-21, 03:10:04,VALID,998.355,VALID,0,VALID,91.9827,VALID,0,VALID,23.2915,VALID,107,VALID,0,
2011-03-21, 03:11:04,VALID,998.345,VALID,0,VALID,92.0285,VALID,0,VALID,23.2702,VALID,107,VALID,0,
2011-03-21, 03:12:04,VALID,998.361,VALID,0,VALID,92.0514,VALID,0,VALID,23.2915,VALID,73,VALID,0,
2011-03-21, 03:13:04,VALID,998.388,VALID,0,VALID,92.0895,VALID,0,VALID,23.2915,VALID,59,VALID,0,
2011-03-21, 03:14:04,VALID,998.384,VALID,0,VALID,92.1048,VALID,0,VALID,23.2915,VALID,59,VALID,0,
2011-03-21, 03:15:04,VALID,998.359,VALID,0,VALID,92.1658,VALID,0,VALID,23.2719,VALID,59,VALID,0,
2011-03-21, 03:16:04,VALID,998.389,VALID,0,VALID,92.1658,VALID,0,VALID,23.2702,VALID,59,VALID,0,
2011-03-21, 03:17:04,VALID,998.396,VALID,0,VALID,92.2116,VALID,0,VALID,23.2719,VALID,59,VALID,0,
2011-03-21, 03:18:04,VALID,998.369,VALID,0,VALID,92.2421,VALID,0.112286,VALID,23.2507,VALID,59,VALID,0,
2011-03-21, 03:19:04,VALID,998.393,VALID,0,VALID,92.2497,VALID,0,VALID,23.2524,VALID,59,VALID,0,
2011-03-21, 03:20:04,VALID,998.39,VALID,0,VALID,92.2574,VALID,0,VALID,23.2524,VALID,64,VALID,0,
2011-03-21, 03:21:04,VALID,998.369,VALID,0,VALID,92.2803,VALID,0,VALID,23.2329,VALID,85,VALID,0,
2011-03-21, 03:22:04,VALID,998.372,VALID,0,VALID,92.326,VALID,0,VALID,23.2117,VALID,85,VALID,0,
2011-03-21, 03:23:04,VALID,998.398,VALID,0,VALID,92.3031,VALID,0.112286,VALID,23.2134,VALID,91,VALID,0,
2011-03-21, 03:24:04,VALID,998.395,VALID,0,VALID,92.326,VALID,0,VALID,23.1939,VALID,85,VALID,0,
2011-03-21, 03:25:04,VALID,998.435,VALID,0,VALID,92.3489,VALID,0,VALID,23.2134,VALID,91,VALID,0,
2011-03-21, 03:26:04,VALID,998.451,VALID,0,VALID,92.3947,VALID,0,VALID,23.1939,VALID,94,VALID,0,
2011-03-21, 03:27:04,VALID,998.438,VALID,0,VALID,92.41,VALID,0,VALID,23.1939,VALID,94,VALID,0,
2011-03-21, 03:28:04,VALID,998.436,VALID,0,VALID,92.4328,VALID,0,VALID,23.1744,VALID,94,VALID,0,
2011-03-21, 03:29:04,VALID,998.46,VALID,0,VALID,92.471,VALID,0,VALID,23.1744,VALID,94,VALID,0,
2011-03-21, 03:30:04,VALID,998.458,VALID,0,VALID,92.4786,VALID,0,VALID,23.1939,VALID,106,VALID,0,
2011-03-21, 03:31:04,VALID,998.477,VALID,0,VALID,92.5168,VALID,0,VALID,23.1939,VALID,106,VALID,0,
2011-03-21, 03:32:04,VALID,998.478,VALID,0,VALID,92.5397,VALID,0,VALID,23.1744,VALID,113,VALID,0,
2011-03-21, 03:33:04,VALID,998.453,VALID,0,VALID,92.5626,VALID,0,VALID,23.1939,VALID,110,VALID,0,
2011-03-21, 03:34:04,VALID,998.463,VALID,0,VALID,92.5702,VALID,0,VALID,23.1939,VALID,104,VALID,0,
2011-03-21, 03:35:04,VALID,998.459,VALID,0,VALID,92.5931,VALID,0,VALID,23.1939,VALID,98,VALID,0,
2011-03-21, 03:36:04,VALID,998.479,VALID,0,VALID,92.6007,VALID,0,VALID,23.1939,VALID,95,VALID,0,
2011-03-21, 03:37:04,VALID,998.491,VALID,0,VALID,92.616,VALID,0,VALID,23.1726,VALID,94,VALID,0,
2011-03-21, 03:38:04,VALID,998.475,VALID,0,VALID,92.6236,VALID,0,VALID,23.2134,VALID,93,VALID,0,
2011-03-21, 03:39:04,VALID,998.472,VALID,0,VALID,92.6083,VALID,0,VALID,23.1939,VALID,92,VALID,0,
2011-03-21, 03:40:04,VALID,998.477,VALID,0,VALID,92.6083,VALID,0,VALID,23.1921,VALID,92,VALID,0,
2011-03-21, 03:41:04,VALID,998.465,VALID,0,VALID,92.6236,VALID,0,VALID,23.2347,VALID,92,VALID,0,
2011-03-21, 03:42:04,VALID,998.465,VALID,0,VALID,92.616,VALID,0,VALID,23.2134,VALID,92,VALID,0,
2011-03-21, 03:43:04,VALID,998.46,VALID,0,VALID,92.6465,VALID,0,VALID,23.1921,VALID,92,VALID,0,
2011-03-21, 03:44:04,VALID,998.481,VALID,0,VALID,92.6236,VALID,0,VALID,23.2134,VALID,92,VALID,0,
2011-03-21, 03:45:04,VALID,998.457,VALID,0,VALID,92.6236,VALID,0,VALID,23.2134,VALID,97,VALID,0,
2011-03-21, 03:46:04,VALID,998.459,VALID,0,VALID,92.6312,VALID,0,VALID,23.2134,VALID,97,VALID,0,
2011-03-21, 03:47:04,VALID,998.464,VALID,0,VALID,92.6541,VALID,0,VALID,23.2134,VALID,97,VALID,0,
2011-03-21, 03:48:04,VALID,998.474,VALID,0,VALID,92.6236,VALID,0,VALID,23.1921,VALID,83,VALID,0,
2011-03-21, 03:49:04,VALID,998.444,VALID,0,VALID,92.6236,VALID,0,VALID,23.1939,VALID,84,VALID,0,
2011-03-21, 03:50:04,VALID,998.443,VALID,0,VALID,92.6312,VALID,0,VALID,23.1939,VALID,79,VALID,0,
2011-03-21, 03:51:04,VALID,998.466,VALID,0,VALID,92.616,VALID,0,VALID,23.1939,VALID,70,VALID,0,
2011-03-21, 03:52:04,VALID,998.457,VALID,0,VALID,92.6007,VALID,0,VALID,23.1939,VALID,70,VALID,0,
2011-03-21, 03:53:04,VALID,998.443,VALID,0,VALID,92.5931,VALID,0,VALID,23.1939,VALID,70,VALID,0,